Regional Weather Roundup
Issued by NWS

Home | Current Version | Previous Version | Graphics & Text | Print | Product List | Glossary Off
Versions: 1 2 3 4 5 6 7 8 9 10 11 12 13 14 15 16 17 18 19 20 21 22 23 24 25 26 27 28 29 30 31 32 33 34 35 36 37 38 39 40 41 42 43 44 45 46 47 48 49

000
ASUS43 KDMX 220907
RWRIA

WEATHER ROUNDUP FOR IOWA
NATIONAL WEATHER SERVICE DES MOINES IA
400 AM CDT FRI AUG 22 2014

NOTE: "FAIR" INDICATES FEW OR NO CLOUDS BELOW 12,000 FEET WITH NO
SIGNIFICANT WEATHER AND/OR OBSTRUCTIONS TO VISIBILITY.

* - THESE STATIONS ARE NOT NWS STATIONS...THUS NOT UNDER NWS
QUALITY CONTROL.  THEY ALSO DO NOT REPORT WEATHER SUCH
AS PRECIPITATION OR FOG.

IAZ001>003-012>014-020>022-031>034-043>046-221000-
   NORTHWEST IOWA

CITY           SKY/WX    TMP DP  RH WIND       PRES   REMARKS
CARROLL *      PTCLDY    73  72  94 CALM      29.87F
CHEROKEE *     MOCLDY    73  73 100 CALM      29.89S FOG
DENISON *      CLEAR     75  75 100 CALM      29.87S
LE MARS *        N/A     72  70  94 N3        29.91R
ORANGE CITY *  CLEAR     73  70  88 NE5       29.91S
SHELDON *      CLEAR     68  68 100 NE5       29.90S
SIOUX CITY     MOCLDY    75  72  90 CALM      29.88R
SPENCER        MOCLDY    67  65  93 CALM      29.91R
STORM LAKE *   PTCLDY    73  73 100 CALM      29.90F
$$

IAZ055>058-069>071-079>083-090>094-221000-
   SOUTHWEST IOWA

CITY           SKY/WX    TMP DP  RH WIND       PRES   REMARKS
ATLANTIC *     LGT RAIN  72  70  94 SW3       29.87F
AUDUBON *      CLEAR     73  72  94 CALM      29.90R
CLARINDA *     CLEAR     73  70  88 NE5       29.92F
COUNCIL BLFS * MOCLDY    72  72 100 SE7       29.88S
CRESTON *      CLOUDY    72  70  94 SE7       29.93S
HARLAN  *      CLEAR     73  73 100 S3        29.91F
LAMONI         CLOUDY    73  70  90 W5        29.94F
RED OAK *      CLOUDY    73  70  88 SE3       29.90F
SHENANDOAH *   CLEAR     75  72  88 E6        29.91S
$$

IAZ047>049-059>061-072>074-084-221000-
   CENTRAL IOWA

CITY           SKY/WX    TMP DP  RH WIND       PRES   REMARKS
AMES           CLOUDY    73  71  93 SW7       29.88F
ANKENY *       LGT RAIN  75  72  88 CALM      29.88F
CHARITON *     RAIN      73  72  94 W6        29.92F
DES MOINES     TSTM      75  71  87 SE7       29.87F
GRINNELL*      CLOUDY    77  73  88 W14       29.89S
KNOXVILLE *    LGT RAIN  75  72  88 W15       29.88S
MARSHALLTOWN   CLOUDY    73  72  96 SW5       29.89R FOG
PELLA *        LGT RAIN  79  75  89 W13G23    29.89F HX  82
PERRY *        LGT RAIN  73  70  88 E3        29.86F
$$

IAZ004>006-015-016-023>025-035-036-221000-
   NORTH CENTRAL IOWA

CITY           SKY/WX    TMP DP  RH WIND       PRES   REMARKS
ALGONA *       CLOUDY    72  72 100 S3        29.90S FOG
CLARION *      CLEAR     72  72 100 CALM      29.89S
ESTHERVILLE    PTCLDY    66  65  96 W5        29.91R
FORT DODGE *   CLOUDY    73  73 100 CALM      29.90S
MASON CITY     MOCLDY    70  69  97 CALM      29.91R FOG
FOREST CITY *  PTCLDY    70  70 100 CALM      29.90R FOG
IOWA FALLS *     N/A     72  70  94 CALM      29.91R FOG
$$

IAZ007>011-017>019-026>030-037>042-050>054-066-221000-
   NORTHEAST IOWA

CITY           SKY/WX    TMP DP  RH WIND       PRES   REMARKS
CEDAR RAPIDS   PTCLDY    72  72 100 E5        29.86F FOG
CHARLES CITY * FOG       70  70 100 S3        29.90S VSB 1/4
CLINTON *      MOCLDY    72  72 100 NE3       29.91R
DECORAH *      FOG       70  70 100 CALM      29.89S VSB 1/2
DUBUQUE        PTCLDY    72  71  97 VRB3      29.91R
MONTICELLO *   CLOUDY    68  68 100 CALM      29.89R FOG
OELWEIN *      FOG       70  70 100 SE3       29.89S VSB 1/2
WATERLOO       CLOUDY    70  69  97 CALM      29.87R FOG
$$

IAZ064-065-067-068-078-221000-
   EAST CENTRAL IOWA

CITY           SKY/WX    TMP DP  RH WIND       PRES   REMARKS
DAVENPORT      MOCLDY    75  73  93 CALM      29.87F FOG
IOWA CITY      MOCLDY    74  74 100 CALM      29.88R FOG
MT. PLEASANT * CLOUDY    77  75  94 S5        29.87S
MUSCATINE *    MOCLDY    77  73  88 CALM      29.87S FOG
QUAD CITIES    CLOUDY    77  74  90 S7        29.87S
$$

IAZ062-063-075>077-085>089-095>099-221000-
   SOUTHEAST IOWA

CITY           SKY/WX    TMP DP  RH WIND       PRES   REMARKS
BURLINGTON     CLOUDY    77  75  93 CALM      29.88R THUNDER
FAIRFIELD *    PTCLDY    79  70  73 W7        29.87S HX  81
FORT MADISON * CLOUDY    81  75  83 SW7       29.89R HX  86
KEOKUK *       MOCLDY    81  73  78 SW12      29.87S HX  85
OSKALOOSA *      N/A     75  72  88 CALM      29.88R
CENTERVILLE *  LGT RAIN  77  75  94 W9        29.94R
OTTUMWA        CLOUDY    78  71  79 W8        29.87S HX  80
WASHINGTON *   PTCLDY    75  75 100 CALM      29.87S
$$

ABBREVIATIONS USED IN REMARKS
   TC - TEMPERATURES IN CELSIUS
  WCI - WIND CHILL INDEX
   HX - HEAT INDEX
  VSB - VISIBILITY
$$



USA.gov is the U.S. government's official web portal to all federal, state and local government web resources and services.